TimeEST,TemperatureF,Dew PointF,Humidity,Sea Level PressureIn,VisibilityMPH,Wind Direction,Wind SpeedMPH,Gust SpeedMPH,PrecipitationIn,Events,Conditions,WindDirDegrees,DateUTC
12:53 AM,27.0,24.1,89,30.00,10.0,Calm,Calm,-,N/A,,Clear,0,2014-02-23 05:53:00
1:53 AM,26.1,23.0,88,30.01,10.0,Calm,Calm,-,N/A,,Clear,0,2014-02-23 06:53:00
2:53 AM,25.0,21.9,88,30.00,10.0,Calm,Calm,-,N/A,,Clear,0,2014-02-23 07:53:00
3:53 AM,24.1,21.9,91,29.99,10.0,Calm,Calm,-,N/A,,Clear,0,2014-02-23 08:53:00
4:53 AM,24.1,21.0,88,30.00,10.0,NW,3.5,-,N/A,,Clear,320,2014-02-23 09:53:00
5:53 AM,24.1,21.0,88,30.01,10.0,NW,3.5,-,N/A,,Clear,320,2014-02-23 10:53:00
6:53 AM,24.1,21.0,88,30.01,10.0,NNW,3.5,-,N/A,,Clear,330,2014-02-23 11:53:00
7:53 AM,28.9,25.0,85,30.03,10.0,NW,4.6,-,N/A,,Clear,320,2014-02-23 12:53:00
8:53 AM,35.1,28.0,76,30.01,10.0,Calm,Calm,-,N/A,,Clear,0,2014-02-23 13:53:00
9:53 AM,41.0,28.9,62,30.00,10.0,Calm,Calm,-,N/A,,Clear,0,2014-02-23 14:53:00
10:53 AM,46.9,28.0,48,29.99,10.0,WNW,4.6,-,N/A,,Clear,300,2014-02-23 15:53:00
11:53 AM,51.1,26.1,38,29.96,10.0,Calm,Calm,-,N/A,,Clear,0,2014-02-23 16:53:00
12:53 PM,51.1,25.0,36,29.91,10.0,Calm,Calm,-,N/A,,Clear,0,2014-02-23 17:53:00
1:53 PM,53.1,25.0,34,29.90,10.0,Variable,3.5,-,N/A,,Clear,0,2014-02-23 18:53:00
2:53 PM,52.0,26.1,37,29.89,10.0,NNW,4.6,-,N/A,,Clear,340,2014-02-23 19:53:00
3:53 PM,52.0,25.0,35,29.87,10.0,Calm,Calm,-,N/A,,Clear,0,2014-02-23 20:53:00
4:53 PM,48.9,27.0,43,29.86,10.0,SSW,3.5,-,N/A,,Overcast,200,2014-02-23 21:53:00
5:53 PM,45.0,28.0,52,29.88,10.0,Calm,Calm,-,N/A,,Overcast,0,2014-02-23 22:53:00
6:53 PM,42.1,30.0,62,29.88,10.0,Calm,Calm,-,N/A,,Overcast,0,2014-02-23 23:53:00
7:53 PM,39.9,30.0,68,29.87,10.0,Calm,Calm,-,N/A,,Overcast,0,2014-02-24 00:53:00
8:53 PM,37.0,30.0,76,29.86,10.0,Calm,Calm,-,N/A,,Overcast,0,2014-02-24 01:53:00
9:53 PM,45.0,27.0,49,29.88,10.0,WNW,12.7,26.5,N/A,,Overcast,290,2014-02-24 02:53:00
10:53 PM,43.0,28.9,58,29.88,10.0,WNW,13.8,23.0,0.00,Rain,Light Rain,290,2014-02-24 03:53:00
11:53 PM,43.0,26.1,51,29.85,10.0,Variable,6.9,-,0.00,,Overcast,0,2014-02-24 04:53:00